Wind_Speed
1 0 1 2 3 5 6 6 5 6 8 8 9 10 11 12 13 13 13 13 13 12 15 15 15 14 13 13 13 13 12 13 14 14 13 13 13 12 12 12 11 11 11
3 1 1 2 3 4 5 5 5 5 6 6 7 8 9 11 12 13 13 13 13 13 12 11 16 17 17 16 16 17 17 17 16 17 16 16 16 16 16 15 15 15 14
5 3 1 2 2 2 3 4 5 6 7 9 10 11 13 14 14 14 13 13 12 11 11 11 10 10 13 16 18 19 20 20 20 20 20 20 21 21 20 20 19 19 18
7 4 3 1 1 2 3 4 6 8 9 11 12 13 14 14 15 15 15 14 14 13 12 12 12 12 12 11 12 12 13 14 15 15 15 16 17 17 19 21 23 23 22
8 5 4 2 1 2 3 5 7 9 10 11 13 14 15 16 17 17 17 17 17 18 17 16 15 15 15 16 16 16 17 18 19 19 18 18 19 20 20 20 20 21 23
8 6 5 4 4 5 6 7 9 10 12 13 14 15 16 18 19 19 20 19 19 20 20 21 22 22 23 23 23 23 23 23 23 24 24 24 25 25 26 26 26 26 25
8 7 6 6 7 7 9 10 12 14 14 15 17 18 19 20 21 22 24 23 23 23 23 24 24 25 25 25 26 27 27 27 28 29 30 30 30 31 31 31 31 31 31
9 8 7 8 9 10 12 13 15 17 17 19 20 21 22 23 23 25 24 25 25 25 25 26 27 27 28 29 29 29 29 29 30 30 30 32 32 32 33 33 34 34 34
10 9 9 9 11 13 14 15 17 19 20 21 22 23 24 25 26 27 28 27 27 27 27 27 28 28 28 29 29 30 30 30 30 30 29 31 33 33 33 32 33 35 36
10 9 9 11 12 14 15 16 17 19 20 22 23 25 26 28 29 30 31 30 30 30 29 29 28 28 29 29 29 30 30 30 32 31 31 32 32 32 33 34 34 34 35
10 10 11 12 13 15 16 17 19 20 22 24 26 27 29 31 32 33 33 32 31 30 30 29 29 29 29 29 31 32 32 32 33 33 33 34 33 33 34 35 36 36 36
11 11 12 13 15 17 19 21 22 24 25 26 27 29 32 34 35 35 35 33 31 30 30 30 30 30 30 31 31 32 34 34 35 36 37 38 38 38 39 39 40 42 41
13 14 15 17 18 20 23 25 26 28 28 30 29 33 34 36 36 35 34 33 32 31 30 30 31 32 33 34 35 37 39 40 41 42 43 44 45 46 47 47 46 47 47
16 17 19 20 21 24 26 29 30 31 33 34 36 38 38 37 36 34 32 31 31 31 32 33 36 38 40 41 41 42 44 45 47 49 50 52 53 53 54 54 54 54 53
19 21 22 24 25 27 30 32 33 35 36 38 39 39 37 35 34 33 32 31 33 35 37 40 42 43 44 46 47 48 50 51 53 54 55 55 55 55 56 56 55 54 53
23 24 26 27 29 30 32 36 38 36 36 37 38 36 35 34 34 34 35 37 39 42 44 46 47 47 48 48 50 51 51 52 53 54 54 55 56 56 55 53 52 51 50
26 27 29 30 31 32 37 39 35 36 37 37 36 35 35 35 36 37 39 42 45 46 47 48 49 50 49 48 48 49 51 53 54 55 55 57 58 58 56 52 48 47 48
27 29 31 32 33 37 37 34 35 35 34 35 36 38 39 40 41 43 45 46 47 48 48 47 47 48 49 50 50 49 45 39 35 33 34 35 39 40 40 40 37 36 37
29 32 34 33 35 35 36 36 33 33 34 35 37 39 41 43 44 45 46 46 45 47 48 49 50 50 49 45 39 34 32 34 33 32 32 30 28 26 24 26 29 35 40
32 34 35 35 34 35 34 32 32 34 36 38 39 41 44 45 46 45 45 46 45 45 45 44 41 36 33 32 32 35 34 33 33 34 34 32 31 30 31 32 33 35 36
34 36 36 36 34 33 33 34 36 38 40 42 43 44 44 44 44 44 44 41 38 37 36 34 33 34 32 35 34 33 32 32 33 33 31 30 26 22 21 22 26 29 32
35 37 36 34 33 35 35 37 38 40 42 44 45 44 43 43 43 42 41 42 38 36 33 32 33 32 32 29 27 27 27 26 26 22 15 13 15 17 20 21 23 29 32
35 35 34 35 36 37 38 40 42 43 43 43 43 42 43 41 41 43 44 44 41 37 34 33 32 33 25 23 20 19 18 17 12 15 17 14 13 17 22 25 27 30 31
35 36 37 38 39 40 42 43 44 44 42 42 41 41 37 38 41 43 47 49 45 38 32 31 29 27 19 16 13 9 10 14 16 20 19 18 17 21 26 28 27 26 29
37 39 40 42 43 45 45 46 45 43 42 40 39 35 34 37 38 42 43 43 31 29 27 25 25 15 10 10 12 11 11 13 13 15 23 24 25 24 26 26 26 24 26
41 42 44 46 46 45 45 45 45 44 41 37 34 31 33 35 36 35 36 27 21 18 19 15 12 10 11 12 12 13 14 13 12 15 18 22 26 24 25 25 26 24 24
Wind_Direction
334 155 20 28 13 6 17 26 18 14 15 6 4 353 349 341 338 332 330 334 340 313 284 284 290 295 298 300 301 302 302 299 294 291 290 289 289 288 288 290 291 292 296
275 261 338 347 6 13 14 20 17 6 354 347 347 346 341 340 335 328 329 330 327 327 338 310 283 282 285 287 289 290 290 290 291 293 294 293 291 286 284 283 282 281 282
255 252 283 319 0 6 354 351 350 344 335 332 330 330 329 329 328 325 316 319 323 323 321 322 326 311 290 285 284 284 284 283 282 283 285 286 286 285 284 282 280 277 277
253 259 250 257 317 359 349 355 353 355 349 345 341 338 332 328 326 321 314 309 309 309 308 305 305 304 302 299 298 297 296 295 293 289 285 286 288 289 289 283 279 278 277
247 243 235 245 261 312 329 329 331 335 332 334 334 335 331 328 325 321 315 309 303 300 297 296 294 294 291 287 285 284 284 286 287 286 283 282 283 286 286 286 286 284 283
240 237 248 260 282 295 306 317 319 320 320 323 323 325 324 324 323 320 315 310 305 300 297 294 291 287 285 284 283 282 280 280 282 283 282 282 281 280 281 282 282 281 281
232 239 254 268 282 294 304 310 312 313 317 318 315 314 313 313 315 314 313 310 307 303 299 296 295 293 290 288 287 285 282 281 280 281 283 282 281 281 281 280 279 278 277
235 245 261 274 289 297 303 308 309 310 314 313 310 310 310 309 307 306 307 305 304 303 300 297 295 293 292 291 292 290 288 286 285 285 284 285 284 283 283 283 282 280 279
233 246 264 281 292 298 301 304 306 308 311 310 309 308 307 305 303 302 302 301 299 298 297 297 296 293 291 291 290 288 289 290 289 288 287 285 286 287 286 284 283 283 282
241 259 274 285 291 295 299 303 304 307 309 308 306 304 303 303 301 300 301 300 300 299 297 295 294 292 292 291 290 290 290 290 289 289 287 285 284 284 284 284 281 280 279
246 262 274 283 290 295 297 300 302 302 301 301 301 302 301 301 300 300 300 299 298 296 294 293 292 292 291 290 290 289 289 288 288 288 287 284 284 283 283 284 284 282 280
247 259 271 279 286 293 298 302 303 304 303 302 301 302 302 300 300 299 298 296 294 292 291 291 291 291 291 290 290 289 289 288 287 286 285 285 285 283 281 279 280 280 279
252 262 271 282 291 298 301 304 305 305 304 303 301 303 302 299 299 297 295 293 290 289 289 289 289 289 289 288 288 287 287 286 285 285 284 283 283 282 282 282 281 280 280
258 272 280 288 294 299 302 303 303 303 304 302 302 302 300 297 295 294 290 288 287 289 290 290 289 289 289 287 285 284 283 283 283 283 283 283 282 282 282 281 280 280 279
263 274 282 289 294 299 302 303 305 303 301 298 299 299 298 296 293 292 289 286 286 287 287 288 288 287 287 287 286 286 285 284 283 282 282 281 280 280 280 280 280 280 280
271 279 284 290 295 301 303 306 305 303 303 302 302 301 299 297 295 293 291 290 291 290 290 290 289 289 289 289 288 287 286 286 285 285 284 282 281 279 278 277 278 279 279
273 280 286 291 297 303 303 303 301 301 303 304 303 303 301 300 297 294 292 290 290 291 292 292 292 293 293 291 289 288 287 286 285 285 285 283 282 280 279 279 279 279 280
277 282 287 294 302 302 303 305 303 306 303 301 301 300 299 298 297 295 295 295 295 296 296 296 294 293 292 290 287 286 288 290 293 299 303 302 297 290 285 281 278 275 275
282 286 292 300 301 303 307 305 305 303 300 298 297 297 298 297 298 298 298 298 298 297 297 296 296 294 292 293 293 290 292 296 296 298 302 307 309 307 299 292 288 286 286
285 289 294 300 301 304 304 305 303 299 298 298 298 298 299 302 301 300 299 299 299 299 298 295 296 297 295 295 293 294 291 291 296 296 297 297 298 298 295 292 291 292 293
288 294 297 297 299 300 299 298 298 297 298 298 298 299 299 298 299 300 300 301 302 300 296 293 294 299 296 292 290 289 289 290 293 298 299 298 301 302 302 303 307 309 308
289 291 292 294 297 296 296 296 296 296 297 299 300 301 299 300 301 301 300 298 294 292 292 290 292 298 295 296 294 295 293 294 297 300 309 319 317 309 307 311 315 320 319
287 288 290 292 293 294 294 293 294 295 300 303 302 300 301 302 303 303 303 300 293 284 289 291 295 303 296 304 302 300 298 299 294 303 304 311 316 310 311 315 314 318 326
285 287 288 290 291 291 291 294 298 301 301 300 298 298 299 302 305 308 306 299 290 279 284 292 294 299 295 299 295 294 299 301 303 308 312 315 319 315 312 314 314 317 324
284 286 287 288 289 290 294 297 297 295 294 294 296 293 297 305 310 313 319 311 283 276 286 296 299 288 286 293 296 291 292 295 300 306 305 313 316 316 312 316 317 320 323
285 287 289 290 292 293 292 291 291 291 291 289 288 290 300 308 311 320 331 333 310 301 303 300 286 275 287 296 297 299 300 301 287 289 292 303 311 324 323 324 324 324 322
Height
5885 5885 5885 5886 5886 5886 5886 5885 5885 5885 5885 5884 5883 5883 5883 5882 5881 5881 5880 5879 5878 5878 5877 5877 5877 5877 5877 5876 5876 5875 5875 5875 5874 5873 5873 5872 5872 5872 5871 5871 5870 5870 5869
5885 5885 5885 5886 5886 5886 5886 5885 5885 5885 5885 5884 5883 5883 5882 5882 5881 5880 5879 5878 5877 5876 5876 5875 5875 5875 5874 5874 5874 5874 5873 5872 5872 5871 5871 5870 5870 5869 5869 5868 5868 5867 5867
5884 5885 5885 5885 5885 5885 5885 5885 5885 5885 5884 5884 5883 5882 5881 5880 5880 5879 5877 5876 5876 5875 5874 5874 5873 5872 5872 5871 5871 5871 5870 5869 5869 5869 5868 5867 5867 5866 5866 5865 5865 5865 5864
5884 5885 5885 5884 5884 5884 5885 5884 5884 5884 5884 5883 5882 5881 5880 5879 5878 5877 5876 5875 5874 5873 5872 5872 5871 5871 5870 5869 5869 5868 5867 5866 5866 5865 5865 5864 5863 5863 5862 5862 5862 5861 5861
5884 5884 5884 5884 5884 5884 5884 5884 5884 5883 5882 5882 5881 5880 5879 5877 5876 5875 5874 5873 5872 5871 5870 5869 5868 5868 5867 5867 5866 5865 5864 5864 5863 5862 5861 5861 5860 5859 5859 5858 5857 5857 5856
5883 5883 5883 5883 5883 5883 5883 5883 5883 5882 5881 5880 5879 5878 5877 5875 5874 5872 5871 5870 5869 5868 5867 5866 5866 5865 5864 5863 5862 5861 5861 5860 5859 5858 5857 5857 5856 5856 5855 5854 5853 5853 5852
5881 5881 5882 5882 5883 5882 5882 5882 5881 5881 5880 5878 5877 5876 5874 5873 5871 5869 5868 5867 5865 5864 5863 5862 5862 5860 5859 5858 5857 5856 5856 5855 5854 5853 5852 5851 5851 5850 5849 5849 5848 5848 5847
5879 5880 5881 5881 5881 5881 5880 5880 5879 5879 5877 5876 5875 5873 5871 5870 5868 5866 5864 5863 5861 5860 5858 5857 5856 5855 5854 5852 5852 5851 5850 5849 5848 5848 5847 5845 5844 5844 5843 5842 5842 5841 5841
5878 5879 5879 5879 5879 5879 5879 5878 5877 5876 5875 5873 5872 5870 5868 5867 5864 5862 5860 5859 5857 5855 5853 5852 5851 5850 5848 5847 5846 5844 5843 5843 5842 5841 5841 5840 5838 5837 5836 5835 5835 5834 5833
5876 5876 5877 5877 5878 5878 5877 5876 5875 5873 5872 5871 5869 5867 5865 5863 5861 5858 5856 5854 5852 5850 5848 5847 5845 5844 5843 5842 5840 5839 5837 5837 5835 5835 5834 5833 5832 5831 5829 5827 5826 5826 5825
5874 5875 5875 5875 5875 5875 5874 5873 5872 5871 5869 5868 5866 5864 5861 5859 5856 5854 5851 5849 5847 5845 5843 5842 5840 5839 5838 5837 5835 5833 5831 5830 5828 5827 5826 5824 5824 5824 5822 5820 5819 5818 5818
5872 5872 5872 5872 5872 5871 5870 5869 5868 5867 5865 5864 5862 5859 5856 5854 5851 5849 5846 5844 5842 5840 5838 5836 5834 5833 5832 5831 5829 5827 5825 5823 5822 5820 5818 5816 5816 5815 5813 5812 5810 5809 5808
5869 5869 5869 5869 5869 5868 5867 5866 5864 5862 5860 5859 5856 5854 5851 5848 5845 5843 5840 5838 5836 5835 5833 5831 5829 5827 5825 5824 5822 5820 5818 5816 5814 5812 5810 5808 5807 5805 5803 5802 5801 5800 5798
5866 5866 5866 5866 5865 5864 5863 5861 5859 5857 5854 5852 5850 5847 5844 5841 5838 5836 5834 5832 5831 5829 5827 5825 5823 5820 5818 5815 5814 5812 5809 5807 5804 5802 5801 5799 5797 5795 5794 5792 5790 5789 5788
5862 5862 5862 5861 5860 5859 5857 5856 5853 5851 5848 5845 5841 5839 5837 5834 5832 5830 5828 5827 5825 5823 5821 5818 5816 5813 5810 5807 5804 5802 5799 5796 5794 5792 5789 5787 5785 5783 5781 5779 5778 5777 5776
5858 5858 5857 5856 5855 5854 5852 5850 5847 5844 5841 5838 5836 5833 5831 5829 5827 5825 5823 5820 5818 5815 5813 5809 5806 5803 5800 5797 5794 5791 5788 5785 5782 5779 5777 5774 5772 5770 5769 5768 5767 5766 5765
5854 5853 5852 5851 5850 5848 5846 5843 5840 5838 5835 5833 5830 5828 5826 5823 5821 5818 5815 5812 5809 5805 5802 5799 5796 5793 5790 5787 5783 5779 5777 5774 5771 5767 5764 5761 5759 5758 5757 5757 5756 5756 5755
5849 5848 5847 5846 5844 5843 5839 5836 5834 5832 5829 5827 5825 5822 5819 5816 5813 5809 5806 5802 5799 5795 5792 5788 5786 5782 5779 5776 5771 5768 5766 5763 5761 5758 5754 5751 5747 5746 5745 5745 5745 5745 5744
5843 5842 5841 5840 5838 5835 5832 5830 5827 5825 5823 5820 5818 5814 5811 5808 5804 5800 5796 5792 5788 5785 5781 5778 5774 5771 5767 5764 5761 5759 5757 5756 5754 5751 5748 5745 5742 5740 5739 5739 5738 5737 5735
5837 5836 5835 5834 5831 5828 5826 5823 5820 5818 5815 5812 5809 5806 5803 5799 5795 5791 5787 5783 5779 5775 5771 5767 5764 5761 5759 5756 5754 5752 5751 5749 5747 5744 5742 5739 5737 5736 5734 5733 5731 5729 5726
5831 5830 5829 5827 5824 5822 5819 5817 5814 5811 5808 5804 5801 5797 5792 5789 5785 5781 5777 5773 5769 5765 5762 5759 5756 5754 5752 5750 5746 5744 5743 5742 5740 5737 5734 5732 5731 5729 5727 5726 5724 5722 5718
5826 5823 5821 5819 5817 5815 5813 5810 5806 5803 5799 5796 5793 5789 5785 5781 5777 5772 5768 5764 5761 5757 5754 5752 5750 5747 5744 5741 5739 5737 5736 5736 5734 5731 5729 5728 5726 5725 5723 5721 5719 5715 5710
5818 5815 5813 5810 5808 5807 5805 5802 5798 5795 5791 5788 5785 5780 5777 5772 5768 5764 5759 5755 5751 5749 5746 5745 5742 5740 5737 5735 5733 5732 5731 5730 5728 5727 5726 5725 5724 5721 5718 5715 5712 5708 5703
5809 5807 5805 5803 5801 5799 5796 5793 5790 5787 5783 5780 5776 5772 5768 5765 5760 5755 5749 5742 5739 5739 5738 5737 5735 5733 5731 5730 5729 5728 5727 5726 5724 5721 5720 5719 5719 5715 5711 5708 5705 5702 5697
5800 5798 5796 5794 5791 5788 5786 5784 5781 5777 5774 5770 5768 5764 5761 5757 5753 5747 5738 5727 5725 5728 5730 5730 5728 5727 5726 5725 5725 5725 5724 5723 5721 5719 5714 5712 5711 5710 5705 5702 5699 5696 5691
5791 5789 5786 5783 5781 5778 5776 5774 5771 5768 5765 5762 5759 5757 5755 5750 5746 5740 5732 5724 5723 5724 5724 5724 5724 5724 5722 5721 5721 5720 5720 5719 5718 5716 5713 5710 5706 5703 5699 5696 5692 5690 5686